Starlink 2047

operational
NORAD ID: 47355 Int'l Des: 2021-005 Owner: SPXS Country: US Constellation: starlink
LEOCIRCULARSTARLINK_TYPE

About Starlink 2047

Description loading...

Live Position

Loading 3D Globe...

Upcoming Passes

Altitude History

Altitude vs Time

uPlot chart will show altitude changes over time

Two-Line Element Set

1 47355U 21005G 25303.08586403 .00005432 00000-0 38329-3 0 9991
2 47355 53.0526 237.9231 0001006 81.0501 279.0602 15.06397867264051
Epoch: Oct 30, 2025 • Age: 19 hours

Current Status

Altitude 547.1 km
Velocity 7.59 km/s
Sub-Earth Point 11.73°N, 114.67°W
Launch Date Jan 20, 2021
Age 4.7 years
Type internet

Technical Details

Classification Payload
Mass 260.00 kg
Dry Mass 248.00 kg
Total Mass 260.00 kg
Length 0.20 m
Diameter 2.80 m
Span 9.00 m
Shape Box + pan
Manufacturer SPXS
Bus Type Starlink
Phase Status In Orbit
Owner/State SPXS/US

Large Constellations

Loading constellations...